Regional Weather Roundup
Issued by NWS Mobile, AL

Home | Current Version | Previous Version | Text Only | Print | Product List | Glossary On
Versions: 1 2 3 4 5 6 7 8 9 10 11 12 13 14 15 16 17 18 19 20 21 22 23 24 25 26 27 28 29 30 31 32 33 34 35 36 37 38 39 40 41 42 43 44 45 46 47 48 49 50
000
ASUS44 KMOB 270912
RWRMOB
REGIONAL WEATHER ROUNDUP
NATIONAL WEATHER SERVICE MOBILE AL
400 AM CDT WED JUL 27 2016

NOTE: "FAIR" INDICATES FEW OR NO CLOUDS BELOW 12,000 FEET WITH NO
      SIGNIFICANT WEATHER AND/OR OBSTRUCTIONS TO VISIBILITY.

  * THESE STATIONS ARE PART OF THE UNIVERSITY OF SOUTH ALABAMA
    MESONET AND ARE NOT UNDER NWS OR FAA QUALITY CONTROL.

ALZ061>064-271000-
COASTAL ALABAMA

CITY           SKY/WX    TMP DP  RH WIND       PRES   REMARKS
MOBILE REG APT PTCLDY    75  72  90 S5        30.00S
BROOKLEY FIELD CLEAR     75  74  96 CALM      30.00S
USA CAMPUS*    NOT AVBL
DOG RIVER*     NOT AVBL


CITY           SKY/WX    TMP DP  RH WIND       PRES   REMARKS
MOUNT VERNON*  NOT AVBL
SARALAND*      NOT AVBL
BAY MINETTE*   NOT AVBL
LOXLEY*        NOT AVBL
ROBERTSDALE*   NOT AVBL
FAIRHOPE*      NOT AVBL
ELBERTA*       NOT AVBL
FOLEY*         NOT AVBL
GRAND BAY*     NOT AVBL
DAUPHIN ISLND* NOT AVBL
BON SCOUR NWR* NOT AVBL
GULF SHORES    PTCLDY    81  75  83 S6        29.99S

$$

ALZ051>060-271000-
INTERIOR SOUTHWEST AND SOUTH CENTRAL ALABAMA

CITY           SKY/WX    TMP DP  RH WIND       PRES   REMARKS
GREENVILLE     CLOUDY    75  72  90 S5        30.01S
EVERGREEN      PTCLDY    74  73  97 S3        30.01S
CASTLEBERRY*   NOT AVBL
ATMORE*        NOT AVBL
DIXIE*         NOT AVBL
ANDALUSIA/OPP  CLEAR     77  73  87 CALM      30.02S
ANDALUSIA*     NOT AVBL
FLORALA APT    CLEAR     74  72  93 CALM      30.03F
FLORALA*       NOT AVBL

$$

FLZ001>006-271000-
WESTERN FLORIDA PANHANDLE

CITY           SKY/WX    TMP DP  RH WIND       PRES   REMARKS
PENSACOLA      CLEAR     80  73  79 SW6       29.99F
NAS PENSACOLA  PTCLDY    81  73  76 SW7       29.99S
MILTON         CLEAR     76  74  93 SW3       30.01R
WHTNG S FIELD  NOT AVBL


CITY           SKY/WX    TMP DP  RH WIND       PRES   REMARKS
WALNUT HILL*   NOT AVBL
JAY*           NOT AVBL
DUKE FIELD     CLEAR     73  72  95 SE2       30.00S
CRESTVIEW      CLEAR     73  71  93 CALM      30.02S
VALPARAISO     CLEAR     80  74  82 W1        30.00S
DESTIN         CLEAR     85  73  67 VRB5      30.00F

$$

MSZ076-079-271000-
INTERIOR SOUTHEAST MISSISSIPPI

CITY           SKY/WX    TMP DP  RH WIND       PRES   REMARKS
LEAKESVILLE*   NOT AVBL
AGRICOLA*      NOT AVBL

$$

MARINE OBSERVATIONS

STATION/POSITION TIME  TEMP    WIND        PRES    WAVE
                       AIR SEA DIR/SP/G            HT/PER
                 (UTC) (F)     (DEG/KT/KT) (MB)    (FT/S)
PASCAGOULA       0800   83     200/  6/  9 1014.9F
PETIT BOIS ISLND 0800   83     200/ 14/ 17 1015.8F
GRAND BAY        0700   83     230/ 10     1017.0S
KATRINA CUT      0800   84     210/ 13     1015.9F
CEDAR POINT      0800   83     220/ 14     1015.2F
E DAUPHIN ISLAND 0800   83     210/  9/ 12 1015.2F
MIDDLE BAY LIGHT 0800   84     200/ 15     1015.6F
USCG MOBILE BAY  0800   78 87  240/  2/  3 1016.0F
STATE DOCKS      0800   80 88              1015.4F
MEAHER PARK      0800   83     200/ 11     1014.9F
WEEKS BAY        0700   82                   N/A
FORT MORGAN      0800   84     220/ 14/ 16 1015.0F
12 S ORANGE BCH  0850   83 87  210/ 12/ 14 1015.6F   4/ 5
PENSACOLA BAY    0800   83 87  210/  9/ 13 1016.0F
64 S DAUPHIN ISL 0800   83 85  190/ 10/ 12 1015.4F
67 S FORT MORGAN 0830   82     200/ 10     1015.6F

$$

SELECTED LOCATIONS ACROSS THE REGION

CITY           SKY/WX    TMP DP  RH WIND       PRES   REMARKS
NEW ORLEANS    CLOUDY    80  75  84 W9        29.97R
GULFPORT       PTCLDY    81  72  74 S5        29.96S
PASCAGOULA AP  CLOUDY    75  75 100 CALM      29.98S
PASCAGOULA*    NOT AVBL
HATTIESBURG    PTCLDY    76  73  91 SE6       29.97S
LAUREL         CLOUDY    73  72  94 S6        29.98S
MERIDIAN       CLOUDY    78  74  87 S8        29.96S
JACKSON        CLOUDY    76  73  91 S8        29.93S
MONTGOMERY     MOCLDY    76  72  87 S5        30.00S
TROY           PTCLDY    74  73  97 S5        30.03S
KINSTON*       NOT AVBL
GENEVA*        NOT AVBL
ASHFORD*       NOT AVBL
DOTHAN         CLEAR     74  73  97 S5        30.07R
PANAMA CITY    CLEAR     76  75  97 CALM      30.01F

$$




USA.gov is the U.S. government's official web portal to all federal, state and local government web resources and services.